Weather History for Lytton, BC

Change the Weather History Date:

Monday, October 1, 2012

  Actual Average Record
Temperature  
Mean Temperature 66 °F -  
Max Temperature 72 °F 65 °F 78 °F (2003)
Min Temperature 59 °F 45 °F 39 °F (2002)
Growing Degree Days 16 (Base 50)    
Moisture  
Dew Point 44 °F    
Average Humidity 42    
Maximum Humidity 49    
Minimum Humidity 31    
Precipitation  
Precipitation 0.00 in - - ()
Sea Level Pressure  
Sea Level Pressure 30.03 in    
Wind  
Wind Speed 23 mph ()    
Max Wind Speed 38 mph    
Max Gust Speed 58 mph    
Visibility 9.0 miles    
Events      
Averages and records for this station are not official NWS values.
T = Trace of Precipitation, MM = Missing Value Source: Averaged Metar Reports

Daily Weather History Graph

Daily Weather History Graph

Search for Another Location

Airport:

Trip Planner

Search our weather history database for the weather conditions in past years. The results will help you decide how hot, cold, wet, or windy it might be!

Date:

Astronomy

Oct. 01, 2012 Rise Set
Actual Time 7:07 AM PDT 6:43 PM PDT
Civil Twilight 6:35 AM PDT 7:15 PM PDT
Nautical Twilight 5:57 AM PDT 7:53 PM PDT
Astronomical Twilight 5:18 AM PDT 8:31 PM PDT
Moon 7:06 PM PDT (10/1) 8:57 AM PDT (10/1)
Length of Visible Light 12h 40m
Length of Day
11h 35m
Full, 97% of the Moon is Illuminated
Oct 1
Full
Oct 8
Last Quarter
Oct 15
New
Oct 21
First Quarter
Oct 29
Full

Hourly Weather History & Observations

Time (PDT) Temp. Dew Point Humidity Pressure Visibility Wind Dir Wind Speed Gust Speed Precip Events Conditions
12:00 AM 64.4 °F 39.2 °F 40% 30.24 in 9.0 mi SSW 21.9 mph 39.1 mph N/A   Clear
1:00 AM 62.6 °F 39.2 °F 42% 30.23 in 9.0 mi SSW 29.9 mph 41.4 mph N/A   Clear
2:00 AM 63 °F 40 °F 31% 30.22 in 9 mi SSW 25.3 mph - -  
2:00 AM 62.6 °F 39.2 °F 42% 30.22 in 9.0 mi South 24.2 mph 39.1 mph N/A   Partly Cloudy
3:00 AM 62.6 °F 41.0 °F 45% 30.21 in 9.0 mi SSW 24.2 mph 41.4 mph N/A   Clear
4:00 AM 62.6 °F 41.0 °F 45% 30.22 in 9.0 mi South 21.9 mph 34.5 mph N/A   Clear
5:00 AM 63 °F 41 °F 33% 30.19 in 9 mi South 19.6 mph - -  
5:00 AM 62.6 °F 41.0 °F 45% 30.19 in 9.0 mi South 20.7 mph 36.8 mph N/A   Clear
6:00 AM 62.6 °F 41.0 °F 45% 30.18 in 9.0 mi SSW 23.0 mph 39.1 mph N/A   Clear
7:00 AM 60.8 °F 41.0 °F 48% 30.16 in 9.0 mi South 27.6 mph 35.7 mph N/A   Partly Cloudy
8:00 AM 62 °F 41 °F 34% 30.14 in 9 mi South 26.5 mph - -  
8:00 AM 62.6 °F 41.0 °F 45% 30.14 in 9.0 mi SSW 21.9 mph 43.7 mph N/A   Clear
9:00 AM 60.8 °F 39.2 °F 45% 30.09 in 9.0 mi SSW 38.0 mph 50.6 mph N/A   Partly Cloudy
10:00 AM 62.6 °F 41.0 °F 45% 30.06 in 9.0 mi South 32.2 mph 47.2 mph N/A   Partly Cloudy
11:00 AM 63 °F 42 °F 34% 30.04 in 9 mi South 33.4 mph - -  
11:00 AM 62.6 °F 41.0 °F 45% 30.04 in 9.0 mi South 31.1 mph 49.5 mph N/A   Scattered Clouds
12:00 PM 68.0 °F 44.6 °F 43% 29.98 in 9.0 mi SSW 33.4 mph 43.7 mph N/A   Scattered Clouds
1:00 PM 69.8 °F 48.2 °F 46% 29.94 in 9.0 mi South 38.0 mph 57.5 mph N/A   Partly Cloudy
2:00 PM 70 °F 48 °F 34% 29.91 in 9 mi South 33.4 mph - -  
2:00 PM 69.8 °F 48.2 °F 46% 29.91 in 9.0 mi SSW 36.8 mph 51.8 mph N/A   Scattered Clouds
3:00 PM 69.8 °F 50.0 °F 49% 29.87 in 9.0 mi South 32.2 mph 49.5 mph N/A   Partly Cloudy
4:00 PM 71.6 °F 50.0 °F 46% 29.83 in 9.0 mi SSW 25.3 mph 44.9 mph N/A   Mostly Cloudy
5:00 PM 71 °F 50 °F 37% 29.85 in 9 mi SSW 26.5 mph - -  
5:00 PM 71.6 °F 50.0 °F 46% 29.85 in 9.0 mi SSW 26.5 mph 43.7 mph N/A   Scattered Clouds
6:00 PM 69.8 °F 50.0 °F 49% 29.84 in 9.0 mi SSW 31.1 mph 40.3 mph N/A   Scattered Clouds
8:00 PM 69 °F 48 °F 37% 29.87 in 9 mi SW 15.0 mph - -  
8:00 PM 69.8 °F 48.2 °F 46% 29.87 in 9.0 mi SW 16.1 mph 32.2 mph N/A   Clear
9:00 PM 68.0 °F 46.4 °F 46% 29.91 in 9.0 mi SSW 9.2 mph - N/A   Clear
10:00 PM 68.0 °F 46.4 °F 46% 29.92 in 9.0 mi SSW 12.7 mph 24.2 mph N/A   Clear
11:00 PM 66 °F 44 °F 34% 29.94 in 9 mi SW 5.8 mph - -  
11:00 PM 66.2 °F 44.6 °F 46% 29.94 in 9.0 mi WSW 3.5 mph - N/A   Clear